This demonstration page uses our WeatherBlox Daily Observations layout. Learn more.

39.92423, -83.80882

Hourly Observations for April 28, 2019

Temp ( °F °C ) Dew Point ( °F °C ) Humidity (%) Winds ( mph kmh ) Pressure ( in mb ) Visibility ( mi km ) Precip ( " mm )
12:56 am 00:56 Cloudy 49 9.4 46 7.8 90 90 SSE 16 26 29.66 1005 10 16.0934 0 0
1:56 am 01:56 Cloudy with Light Rain 48 8.9 47 8.3 96 96 E 3 6 29.72 1007 7 11.26538 0.01 0.254
2:56 am 02:56 Cloudy 48 8.9 48 8.9 100 100 NE 5 7 29.72 1006 10 16.0934 0 0
3:56 am 03:56 Cloudy 48 8.9 48 8.9 100 100 ENE 6 9 29.72 1007 10 16.0934 0.01 0.254
4:56 am 04:56 Cloudy with Mist and Fog 46 7.8 46 7.8 100 100 N 6 9 29.76 1008 6 9.65604 0.01 0.254
5:07 am 05:07 Cloudy with Mist and Fog 46 8 46 8 100 100 N 7 11 29.78 1008 6 9.65604 0 0
5:16 am 05:16 Cloudy 46 8 46 8 100 100 N 6 9 29.78 1008 8 12.87472 0 0
5:26 am 05:26 Cloudy 46 8 46 8 100 100 N 9 15 29.79 1009 7 11.26538 0 0
5:56 am 05:56 Cloudy 46 7.8 46 7.8 100 100 N 13 20 29.81 1009 10 16.0934 0.01 0.254
6:19 am 06:19 Cloudy 45 7 45 7 100 100 N 14 22 29.84 1011 9 14.48406 0 0
6:56 am 06:56 Cloudy 43 6.1 43 6.1 100 100 N 16 26 29.88 1012 10 16.0934 0.01 0.254
7:56 am 07:56 Cloudy 42 5.6 41 5 96 96 N 15 24 29.96 1015 10 16.0934 0.01 0.254
8:42 am 08:42 Cloudy 43 6 39 4 87 87 N 16 26 30.01 1016 10 16.0934 0 0
8:56 am 08:56 Cloudy 42 5.6 40 4.4 92 92 N 14 22 30.01 1016 10 16.0934 0 0
9:06 am 09:06 Cloudy 43 6 39 4 87 87 N 16 26 30.03 1017 10 16.0934 0.01 0.254
9:15 am 09:15 Cloudy 43 6 39 4 87 87 N 16 26 30.03 1017 10 16.0934 0.01 0.254
9:56 am 09:56 Cloudy 43 6.1 40 4.4 89 89 N 16 26 30.07 1018 10 16.0934 0.01 0.254
10:56 am 10:56 Cloudy 43 6.1 40 4.4 89 89 NNE 15 24 30.12 1020 10 16.0934 0.01 0.254
11:28 am 11:28 Cloudy 43 6 39 4 87 87 N 16 26 30.13 1020 10 16.0934 0.01 0.254
11:56 am 11:56 Mostly Cloudy 46 7.8 41 5 83 83 NE 14 22 30.13 1020 10 16.0934 0.01 0.254
12:11 pm 12:11 Partly Cloudy 46 8 41 5 82 82 NE 10 17 30.13 1020 10 16.0934 0.01 0.254
12:27 pm 12:27 Mostly Cloudy 48 9 41 5 76 76 NNE 10 17 30.14 1021 10 16.0934 0.01 0.254
12:56 pm 12:56 Cloudy 48 8.9 40 4.4 74 74 NNE 15 24 30.16 1021 10 16.0934 0.02 0.508
1:56 pm 13:56 Cloudy 49 9.4 41 5 74 74 N 12 19 30.17 1022 10 16.0934 0.02 0.508
2:56 pm 14:56 Mostly Cloudy 53 11.7 41 5 64 64 NE 17 28 30.18 1022 10 16.0934 0.03 0.762
3:11 pm 15:11 Mostly Cloudy 52 11 39 4 62 62 NE 15 24 30.18 1022 10 16.0934 0.01 0.254
3:56 pm 15:56 Cloudy 53 11.7 40 4.4 61 61 NNE 13 20 30.19 1022 10 16.0934 0.04 1.016
4:56 pm 16:56 Mostly Cloudy 54 12.2 40 4.4 59 59 NNE 10 17 30.19 1023 10 16.0934 0.03 0.762
5:56 pm 17:56 Mostly Sunny 52 11.1 37 2.8 57 57 ENE 10 17 30.21 1023 10 16.0934 0.03 0.762
6:56 pm 18:56 Mostly Sunny 53 11.7 38 3.3 57 57 ENE 12 19 30.22 1023 10 16.0934 0.02 0.508
7:56 pm 19:56 Sunny 49 9.4 38 3.3 66 66 ENE 9 15 30.22 1023 10 16.0934 0.03 0.762
8:56 pm 20:56 Clear 44 6.7 36 2.2 73 73 NE 8 13 30.23 1024 10 16.0934 0.01 0.254
9:56 pm 21:56 Clear 42 5.6 36 2.2 79 79 ENE 7 11 30.25 1025 10 16.0934 0.02 0.508
10:56 pm 22:56 Clear 42 5.6 36 2.2 79 79 ENE 7 11 30.27 1025 10 16.0934 0.01 0.254
11:56 pm 23:56 Clear 40 4.4 36 2.2 86 86 ENE 8 13 30.27 1025 10 16.0934 0.01 0.254

Powered by AerisWeather